Location: Bosmont
(49.7318°N, 3.8587°E)
Time: 09:38:38
(UTC+00:00)

Cosmos 1602 Rocket - Pass Details

Date: 08 February 2023
Orbit: 603 x 630 km, 82.5° (Epoch: 23 March)

Event Time Altitude Azimuth Distance (km) Brightness Sun altitude
Rises 18:31:35 0° 174° (S) 2,847 6.9 -16.6°
Reaches altitude 10° 18:33:49 10° 169° (SSE) 1,947 6.0 -16.9°
Maximum altitude 18:37:58 49° 94° (E) 782 3.6 -17.6°
Drops below altitude 10° 18:42:09 10° 20° (NNE) 1,964 5.9 -18.3°
Sets 18:44:26 0° 15° (NNE) 2,875 6.8 -18.7°
